TimeCDT,TemperatureF,Dew PointF,Humidity,Sea Level PressureIn,VisibilityMPH,Wind Direction,Wind SpeedMPH,Gust SpeedMPH,PrecipitationIn,Events,Conditions,WindDirDegrees,DateUTC
12:53 AM,64.0,63.0,96,30.08,7.0,Calm,Calm,-,N/A,,Clear,0,2012-03-13 05:53:00
1:33 AM,62.6,60.8,94,30.09,6.0,Calm,Calm,-,N/A,,Scattered Clouds,0,2012-03-13 06:33:00
1:42 AM,64.4,62.6,94,30.09,4.0,SSE,6.9,-,N/A,,Mostly Cloudy,150,2012-03-13 06:42:00
1:48 AM,64.4,64.4,100,30.09,2.5,SE,5.8,-,N/A,,Mostly Cloudy,140,2012-03-13 06:48:00
1:53 AM,64.0,64.0,100,30.07,1.5,SSE,6.9,-,N/A,,Overcast,150,2012-03-13 06:53:00
2:04 AM,64.4,64.4,100,30.09,0.5,SSE,6.9,-,N/A,Fog,Fog,160,2012-03-13 07:04:00
2:22 AM,66.2,66.2,100,30.09,2.0,SSE,9.2,-,N/A,,Overcast,150,2012-03-13 07:22:00
2:26 AM,66.2,66.2,100,30.09,4.0,SE,8.1,-,N/A,,Overcast,140,2012-03-13 07:26:00
2:53 AM,66.0,64.9,96,30.06,5.0,SSE,4.6,-,N/A,,Overcast,150,2012-03-13 07:53:00
3:24 AM,66.2,64.4,94,30.08,5.0,Calm,Calm,-,N/A,,Overcast,0,2012-03-13 08:24:00
3:53 AM,64.9,64.0,97,30.05,6.0,ESE,3.5,-,N/A,,Overcast,120,2012-03-13 08:53:00
4:44 AM,66.2,64.4,94,30.06,6.0,SE,4.6,-,N/A,,Overcast,140,2012-03-13 09:44:00
4:53 AM,66.0,64.9,96,30.04,6.0,SSE,6.9,-,N/A,,Overcast,150,2012-03-13 09:53:00
5:00 AM,66.2,64.4,94,30.06,6.0,SE,8.1,-,N/A,,Overcast,140,2012-03-13 10:00:00
5:37 AM,66.2,64.4,94,30.06,7.0,SE,5.8,-,N/A,,Overcast,140,2012-03-13 10:37:00
5:53 AM,66.0,64.0,93,30.04,8.0,SE,4.6,-,N/A,,Overcast,130,2012-03-13 10:53:00
6:53 AM,64.9,64.0,97,30.05,7.0,Calm,Calm,-,N/A,,Scattered Clouds,0,2012-03-13 11:53:00
7:11 AM,64.4,62.6,94,30.08,6.0,Calm,Calm,-,N/A,,Mostly Cloudy,0,2012-03-13 12:11:00
7:53 AM,64.9,64.0,97,30.06,4.0,East,3.5,-,N/A,,Overcast,90,2012-03-13 12:53:00
8:01 AM,64.4,64.4,100,30.09,1.8,ESE,5.8,-,N/A,,Overcast,110,2012-03-13 13:01:00
8:10 AM,64.4,64.4,100,30.09,1.0,ESE,4.6,-,N/A,,Overcast,120,2012-03-13 13:10:00
8:20 AM,64.4,64.4,100,30.10,0.8,Calm,Calm,-,N/A,,Overcast,0,2012-03-13 13:20:00
8:30 AM,64.4,64.4,100,30.10,1.2,Calm,Calm,-,N/A,,Overcast,0,2012-03-13 13:30:00
8:46 AM,64.4,64.4,100,30.10,2.0,Calm,Calm,-,N/A,,Overcast,0,2012-03-13 13:46:00
8:53 AM,66.0,64.9,96,30.08,2.5,ESE,4.6,-,N/A,,Overcast,120,2012-03-13 13:53:00
9:04 AM,66.2,66.2,100,30.10,3.0,ESE,3.5,-,N/A,,Overcast,120,2012-03-13 14:04:00
9:53 AM,68.0,66.0,93,30.10,7.0,SE,5.8,-,N/A,,Overcast,130,2012-03-13 14:53:00
10:18 AM,69.8,66.2,88,30.12,10.0,SSE,8.1,-,N/A,,Overcast,150,2012-03-13 15:18:00
10:43 AM,69.8,66.2,88,30.12,10.0,SE,8.1,-,N/A,,Overcast,140,2012-03-13 15:43:00
10:50 AM,69.8,66.2,88,30.12,10.0,SSE,9.2,-,N/A,,Overcast,150,2012-03-13 15:50:00
10:53 AM,70.0,66.0,87,30.11,10.0,SE,9.2,-,N/A,,Overcast,140,2012-03-13 15:53:00
11:03 AM,71.6,66.2,83,30.13,10.0,SE,6.9,-,N/A,,Overcast,140,2012-03-13 16:03:00
11:53 AM,73.9,66.0,76,30.10,10.0,SE,10.4,-,N/A,,Overcast,140,2012-03-13 16:53:00
12:53 PM,75.9,66.9,74,30.09,10.0,SSE,10.4,-,N/A,,Overcast,160,2012-03-13 17:53:00
1:53 PM,78.1,66.0,66,30.06,10.0,South,12.7,-,N/A,,Mostly Cloudy,170,2012-03-13 18:53:00
2:53 PM,78.1,66.9,68,30.03,10.0,SSE,12.7,-,N/A,,Mostly Cloudy,150,2012-03-13 19:53:00
3:53 PM,79.0,66.9,66,29.99,10.0,SSE,9.2,-,N/A,,Mostly Cloudy,160,2012-03-13 20:53:00
4:53 PM,81.0,64.9,58,29.97,10.0,SSE,15.0,-,N/A,,Mostly Cloudy,160,2012-03-13 21:53:00
5:53 PM,80.1,64.9,60,29.97,10.0,SE,18.4,21.9,N/A,,Partly Cloudy,140,2012-03-13 22:53:00
6:53 PM,77.0,64.9,66,29.98,10.0,SE,16.1,23.0,N/A,,Clear,130,2012-03-13 23:53:00
7:53 PM,75.0,64.0,69,29.99,10.0,SE,12.7,19.6,0.00,,Clear,140,2012-03-14 00:53:00
8:53 PM,72.0,64.0,76,30.01,10.0,SE,8.1,-,N/A,,Clear,130,2012-03-14 01:53:00
9:53 PM,71.1,66.0,84,30.03,10.0,ESE,9.2,-,N/A,,Clear,120,2012-03-14 02:53:00
10:37 PM,69.8,66.2,88,30.07,10.0,SE,13.8,-,N/A,,Mostly Cloudy,130,2012-03-14 03:37:00
10:53 PM,70.0,66.0,87,30.05,10.0,SE,15.0,-,N/A,,Mostly Cloudy,130,2012-03-14 03:53:00
11:20 PM,69.8,66.2,88,30.08,10.0,SE,11.5,20.7,N/A,,Overcast,140,2012-03-14 04:20:00
11:53 PM,69.1,66.0,90,30.06,10.0,SE,12.7,-,N/A,,Overcast,140,2012-03-14 04:53:00